Weather History for KARB - October, 2013

Change the Weather History Date:

Friday, October 25, 2013

  Actual Average (KDTW) Record (KDTW)
Temperature  
Mean Temperature 39 °F 49 °F  
Max Temperature 48 °F 58 °F 82 °F (1963)
Min Temperature 30 °F 41 °F 24 °F (1981)
Degree Days  
Heating Degree Days 26 16  
Month to date heating degree days 296  
Since 1 July heating degree days 410  
Cooling Degree Days 0 0  
Month to date cooling degree days 7  
Year to date cooling degree days 802  
Moisture  
Dew Point 29 °F    
Average Humidity 75    
Maximum Humidity 93    
Minimum Humidity 44    
Precipitation  
Precipitation 0.00 in 0.08 in 1.09 in (1991)
Month to date precipitation 2.04  
Year to date precipitation 27.74  
Snow  
Snow 0.00 in 0.00 in T in (1988)
Month to date snowfall 0.1  
Since 1 July snowfall 0.1  
Since 1 September snowfall 0.1  
Snow Depth -    
Sea Level Pressure  
Sea Level Pressure 30.25 in    
Wind  
Wind Speed 8 mph (West)    
Max Wind Speed 17 mph    
Max Gust Speed 20 mph    
Visibility 10 miles    
Events      
T = Trace of Precipitation, MM = Missing Value Source: NWS Daily Summary

Daily Weather History Graph

Daily Weather History Graph

Search for Another Location

Airport or City:

Trip Planner

Search our weather history database for the weather conditions in past years. The results will help you decide how hot, cold, wet, or windy it might be!

Date:

Astronomy

Oct. 25, 2013 Rise Set
Actual Time 7:59 AM EDT 6:37 PM EDT
Civil Twilight 7:31 AM EDT 7:06 PM EDT
Nautical Twilight 6:58 AM EDT 7:39 PM EDT
Astronomical Twilight 6:25 AM EDT 8:11 PM EDT
Moon 11:54 PM EDT (10/25) 1:41 PM EDT (10/25)
Length of Visible Light 11h 35m
Length of Day
10h 37m
Waning Gibbous, 62% of the Moon is Illuminated
Oct 25
Waning Gibbous
Oct 26
Last Quarter
Nov 3
New
Nov 10
First Quarter
Nov 17
Full

Hourly Weather History & Observations

Time (EDT) Temp. Windchill Dew Point Humidity Pressure Visibility Wind Dir Wind Speed Gust Speed Precip Events Conditions
12:53 AM 32.0 °F 24.8 °F 28.9 °F 88% 30.20 in 10.0 mi West 8.1 mph - N/A   Clear
1:53 AM 30.0 °F 25.2 °F 28.0 °F 92% 30.22 in 10.0 mi West 4.6 mph - N/A   Clear
2:53 AM 30.9 °F 23.5 °F 28.0 °F 89% 30.22 in 10.0 mi West 8.1 mph - N/A   Clear
3:53 AM 30.9 °F 23.5 °F 28.9 °F 92% 30.23 in 10.0 mi West 8.1 mph - N/A   Clear
4:17 AM 30.2 °F 23.4 °F 28.4 °F 93% 30.22 in 9.0 mi West 6.9 mph - N/A   Partly Cloudy
4:53 AM 30.9 °F 24.3 °F 28.9 °F 92% 30.24 in 9.0 mi West 6.9 mph - N/A   Partly Cloudy
5:34 AM 30.2 °F 23.4 °F 28.4 °F 93% 30.23 in 9.0 mi West 6.9 mph - N/A   Mostly Cloudy
5:53 AM 33.1 °F 24.9 °F 30.9 °F 92% 30.26 in 9.0 mi West 10.4 mph - N/A   Overcast
6:53 AM 34.0 °F 26.0 °F 30.9 °F 89% 30.29 in 10.0 mi WNW 10.4 mph - N/A   Overcast
7:53 AM 33.1 °F 27.7 °F 30.9 °F 92% 30.30 in 10.0 mi WNW 5.8 mph - N/A   Overcast
8:46 AM 33.8 °F 28.6 °F 32.0 °F 93% 30.30 in 9.0 mi WNW 5.8 mph - N/A   Overcast
8:53 AM 34.0 °F 28.0 °F 32.0 °F 92% 30.32 in 9.0 mi WNW 6.9 mph - N/A   Overcast
9:53 AM 37.9 °F 32.1 °F 34.0 °F 86% 30.34 in 10.0 mi WNW 8.1 mph - N/A   Mostly Cloudy
10:53 AM 43.0 °F 37.2 °F 34.0 °F 71% 30.34 in 10.0 mi WNW 10.4 mph - N/A   Clear
11:53 AM 45.0 °F 40.1 °F 32.0 °F 60% 30.33 in 10.0 mi West 9.2 mph - N/A   Scattered Clouds
12:53 PM 45.0 °F 38.5 °F 28.0 °F 52% 30.32 in 10.0 mi WNW 13.8 mph 19.6 mph N/A   Mostly Cloudy
1:53 PM 46.0 °F 40.6 °F 28.0 °F 50% 30.31 in 10.0 mi WNW 11.5 mph 19.6 mph N/A   Overcast
2:53 PM 48.9 °F - 28.0 °F 44% 30.28 in 10.0 mi WSW 17.3 mph - N/A   Mostly Cloudy
3:53 PM 45.0 °F 38.9 °F 30.0 °F 56% 30.28 in 10.0 mi West 12.7 mph - N/A   Overcast
4:53 PM 46.0 °F 39.3 °F 28.9 °F 51% 30.26 in 10.0 mi SW 16.1 mph - N/A   Mostly Cloudy
5:53 PM 44.1 °F 39.5 °F 28.9 °F 55% 30.24 in 10.0 mi WSW 8.1 mph - N/A   Mostly Cloudy
6:53 PM 39.9 °F 34.5 °F 28.9 °F 65% 30.23 in 10.0 mi SW 8.1 mph - N/A   Clear
7:53 PM 37.0 °F 32.4 °F 27.0 °F 67% 30.22 in 10.0 mi SW 5.8 mph - N/A   Partly Cloudy
8:53 PM 36.0 °F 31.1 °F 27.0 °F 70% 30.20 in 10.0 mi SW 5.8 mph - N/A   Clear
9:53 PM 35.1 °F 31.0 °F 26.1 °F 70% 30.17 in 10.0 mi SSW 4.6 mph - N/A   Clear
10:53 PM 36.0 °F 30.3 °F 26.1 °F 67% 30.15 in 10.0 mi SSW 6.9 mph - N/A   Clear
11:53 PM 39.0 °F 32.3 °F 27.0 °F 62% 30.13 in 10.0 mi SW 10.4 mph - N/A   Mostly Cloudy